• MPC Preparation (Info)

  • MPEC 2016-C104: 2016 CX135

    The following Minor Planet Electronic Circular may be linked-to from your own Web pages, but must not otherwise be redistributed electronically.

    A form allowing access to any MPEC is at the bottom of this page.


    Read MPEC 2016-C103 Read MPEC 2016-C105


    M.P.E.C. 2016-C104                               Issued 2016 Feb.  9, 16:23 UT
    
         The Minor Planet Electronic Circulars contain information on unusual
             minor planets and routine data on comets.  They are published
        on behalf of Division F of the International Astronomical Union by the
              Minor Planet Center, Smithsonian Astrophysical Observatory,
                              Cambridge, MA 02138, U.S.A.
    
                 Prepared using the Tamkin Foundation Computer Network
    
                                  MPC@CFA.HARVARD.EDU
                URL https://www.minorplanetcenter.net/    ISSN 1523-6714
    
                                      2016 CX135
    
    Observations:
         K16CD5X* C2016 02 04.26224 03 39 13.216+42 07 15.22         21.7 wLEC104F51
         K16CD5X  C2016 02 04.27469 03 39 14.306+42 06 58.54         21.9 wLEC104F51
         K16CD5X  C2016 02 04.28715 03 39 15.420+42 06 41.80         21.7 wLEC104F51
         K16CD5X  C2016 02 04.29964 03 39 16.510+42 06 25.01         21.8 wLEC104F51
         K16CD5X KC2016 02 05.21023 03 40 41.80 +41 46 16.8                oEC104291
         K16CD5X KC2016 02 05.21516 03 40 42.21 +41 46 09.3                oEC104291
         K16CD5X KC2016 02 05.22012 03 40 42.87 +41 46 02.7                oEC104291
         K16CD5X  C2016 02 07.09768903 43 45.48 +41 04 53.2          21.8 VtEC104H01
         K16CD5X  C2016 02 07.10115703 43 45.81 +41 04 48.6          21.8 VtEC104H01
         K16CD5X  C2016 02 07.11142303 43 46.79 +41 04 35.2          21.6 VtEC104H01
         K16CD5X  C2016 02 07.12276903 43 47.88 +41 04 20.2          22.1 VtEC104H01
         K16CD5X  C2016 02 09.09258 03 47 08.38 +40 21 34.1          21.3 RoEC104926
         K16CD5X  C2016 02 09.10035 03 47 09.20 +40 21 23.7          21.5 RoEC104926
         K16CD5X  C2016 02 09.10433303 47 09.53 +40 21 18.2          22.0 VtEC104H01
         K16CD5X  C2016 02 09.10755303 47 09.85 +40 21 13.8          21.9 VtEC104H01
         K16CD5X  C2016 02 09.10814 03 47 09.96 +40 21 13.9          21.5 RoEC104926
         K16CD5X  C2016 02 09.11783203 47 10.89 +40 21 00.2          21.8 VtEC104H01
         K16CD5X  C2016 02 09.12474803 47 11.59 +40 20 51.3          21.8 VtEC104H01
    
    Observer details:
    291 LPL/Spacewatch II.  Observer M. T. Read.  1.8-m f/2.7 reflector + CCD.
    926 Tenagra II Observatory.  Observers M. Schwartz, P. R. Holvorcem.  Measurer
        M. Schwartz.  0.81-m f/7 Ritchey-Chretien + CCD.
    F51 Pan-STARRS 1, Haleakala.  Observers B. Gibson, T. Goggia, N. Primak,
        A. Schultz, M. Willman.  Measurers K. Chambers, S. Chastel, L. Denneau,
        H. Flewelling, M. Huber, E. Lilly, E. Magnier, R. Wainscoat, C. Waters,
        R. Weryk.  1.8-m Ritchey-Chretien + CCD.
    H01 Magdalena Ridge Observatory, Socorro.  Observers W. H. Ryan, E. V. Ryan.
        Measurer W. H. Ryan.  2.4-m f/8.9 reflector + CCD.
    
    Orbital elements:
    2016 CX135
    Epoch 2016 Jan. 13.0 TT = JDT 2457400.5                 MPC
    M 337.82232              (2000.0)            P               Q
    n   0.19780762     Peri.  205.73093     -0.88545044     -0.33511577
    a   2.9172526      Node   310.70486     +0.46473354     -0.63774035
    e   0.5352260      Incl.   25.13416     +0.00050333     -0.69353058
    P   4.98           H   19.0           G   0.15           U   8
    Residuals in seconds of arc
    160204 F51  0.0   0.0     160205 291  1.6+  0.3-    160209 926  0.4+  0.0
    160204 F51  0.1-  0.0     160207 H01  0.3-  0.0     160209 H01  0.0   0.1+
    160204 F51  0.0   0.0     160207 H01  0.3-  0.0     160209 H01  0.1-  0.1-
    160204 F51  0.2-  0.0     160207 H01  0.3-  0.1+    160209 926  0.1+  0.3+
    160205 291  0.1-  0.5+    160207 H01  0.3-  0.0     160209 H01  0.0   0.3-
    160205 291  0.6-  0.3-    160209 926  0.1-  0.3+    160209 H01  0.1+  0.2-
    
    Ephemeris:
    2016 CX135               a,e,i = 2.92, 0.54, 25                  q = 1.3559
    Date    TT    R. A. (2000) Decl.     Delta      r     Elong.  Phase     V
    2016 01 10    03 16 34.1 +51 47 28   1.0437  1.7964   124.8    26.7    21.6
    ...
    2016 01 25    03 25 46.5 +45 59 28   1.0514  1.7069   113.9    31.8    21.6
    ...
    2016 02 02    03 35 50.5 +42 57 34   1.0649  1.6611   108.2    34.3    21.7
    ...
    2016 02 08    03 45 16.1 +40 45 14   1.0783  1.6279   104.0    36.0    21.7
    2016 02 09    03 46 58.7 +40 23 34   1.0807  1.6224   103.3    36.3    21.7
    2016 02 10    03 48 43.6 +40 02 00   1.0832  1.6170   102.6    36.5    21.7
    ...
    2016 02 16    03 59 56.3 +37 54 55   1.0994  1.5853    98.7    38.0    21.7
    ...
    2016 02 24    04 16 34.1 +35 11 02   1.1233  1.5452    93.8    39.7    21.8
    ...
    2016 03 10    04 51 42.8 +30 15 08   1.1731  1.4776    85.6    42.1    21.8
    
    A. U. Tomatic                (C) Copyright 2016 MPC           M.P.E.C. 2016-C104
    

    Read MPEC 2016-C103 Read MPEC 2016-C105


    MPEC number:

    Enter an MPEC number in one of the following forms:

    • 1997-B01 (the full form)
    • J97B01 (the packed version of the full form)
    • B01 (the abbreviated form)